Fairweather Grounds 92NM Southeast of Yakutat, AK (46083)

Conditions for Thursday

Daily
Weekly
Monthly
Marine Data Graph

Marine & Boating Location Search

Enter a coastal zip code for marine weather.

General Information

Location: 58.237 North -137.986 West
Buoy Type: 6-meter NOMAD buoy
Buoy Hull: 6N31
Payload: ARES 4.4 payload
Owned by: NDBC
Windspeed: Measured by obtained from anemometer
Sea Surface: Measured by Intake
Note:

Weather and Wave Data

Time Temp Humidity Wind Dominant Wave Wind Wave Wave Swell Pressure
  Air
(°F)
Water
(°F)
  Dir Speed
(kts)
Speed
(mph)
Period
(sec)
Height
(ft)
Range
(ft)
Period
(sec)
Height
(ft)
Range
(ft)
Period
(sec)
Height
(ft)
Range
(ft)
Atmo.
(in)
Tend.
(in)
20:50 43 44 98 WSW 17.5 20.1 11 8.86 exactly 8.9 6 6.56 5.74 - 7.38 11 4.92 4.10 - 5.74 29.24 -0.08
21:50 43 44 100 West 23.3 26.8 10 8.20 exactly 8.2 6 6.56 5.74 - 7.38 10 4.92 4.10 - 5.74 29.24 -0.05
22:50 44 44 100 West 25.3 29.1 11 8.53 exactly 8.5 6 6.56 5.74 - 7.38 11 4.92 4.10 - 5.74 29.24 -0.02
23:50 44 44 92 West 25.3 29.1 8 10.50 exactly 10.5 8 9.84 9.02 - 10.66 11 4.92 4.10 - 5.74 29.26 +0.01
00:50 43 44 93 WNW 23.3 26.8 8 11.48 exactly 11.5 8 11.48 10.66 - 12.30 - - - 29.27 +0.04
01:50 43 44 92 West 25.3 29.1 9 14.11 exactly 14.1 6 9.84 9.02 - 10.66 9 9.84 9.02 - 10.66 29.28 +0.04
02:50 42 44 98 WNW 21.4 24.6 9 13.45 exactly 13.5 6 9.84 9.02 - 10.66 9 9.84 9.02 - 10.66 29.30 +0.04
03:50 43 44 91 West 23.3 26.8 11 14.44 exactly 14.4 7 8.20 7.38 - 9.02 11 11.48 10.66 - 12.30 29.30 +0.03
04:50 43 44 89 West 27.2 31.3 11 13.78 exactly 13.8 7 8.20 7.38 - 9.02 11 9.84 9.02 - 10.66 29.30 +0.02
05:50 43 44 83 West 27.2 31.3 11 14.76 exactly 14.8 8 9.84 9.02 - 10.66 11 9.84 9.02 - 10.66 29.32 +0.02
06:50 43 44 85 WNW 27.2 31.3 11 15.09 exactly 15.1 7 9.84 9.02 - 10.66 11 11.48 10.66 - 12.30 29.34 +0.04
07:50 43 44 85 WNW 25.3 29.1 11 17.72 exactly 17.7 7 9.84 9.02 - 10.66 11 14.76 13.94 - 15.58 29.36 +0.06
08:50 43 44 85 West 23.3 26.8 11 17.06 exactly 17.1 7 11.48 10.66 - 12.30 11 13.12 12.30 - 13.94 29.37 +0.06
09:50 40 44 98 West 27.2 31.3 11 17.72 exactly 17.7 7 11.48 10.66 - 12.30 11 13.12 12.30 - 13.94 29.39 +0.05
10:50 40 44 87 West 23.3 26.8 11 16.73 exactly 16.7 8 11.48 10.66 - 12.30 11 13.12 12.30 - 13.94 29.41 +0.05
11:50 43 44 84 WNW 21.4 24.6 11 19.69 exactly 19.7 8 9.84 9.02 - 10.66 11 16.40 15.58 - 17.22 29.42 +0.04
12:50 39 44 100 West 25.3 29.1 12 17.06 exactly 17.1 6 9.84 9.02 - 10.66 12 14.76 13.94 - 15.58 29.43 +0.04
13:50 42 44 85 WNW 21.4 24.6 12 16.73 exactly 16.7 8 11.48 10.66 - 12.30 12 11.48 10.66 - 12.30 29.44 +0.03
15:50 42 44 83 WNW 17.5 20.1 11 21.00 exactly 21.0 7 9.84 9.02 - 10.66 11 18.04 17.22 - 18.86 29.47 +0.04
16:50 40 44 90 NW 19.4 22.4 11 15.42 exactly 15.4 6 9.84 9.02 - 10.66 11 11.48 10.66 - 12.30 29.49 +0.05
17:50 40 44 88 WNW 15.6 17.9 12 17.06 exactly 17.1 7 6.56 5.74 - 7.38 12 14.76 13.94 - 15.58 29.49 +0.05
18:50 39 44 100 NW 7.8 8.9 12 15.75 exactly 15.7 4 1.64 0.82 - 2.46 12 16.40 15.58 - 17.22 29.51 +0.03
19:50 43 44 76 West 19.4 22.4 12 16.73 exactly 16.7 7 11.48 10.66 - 12.30 12 13.12 12.30 - 13.94 29.50 +0.01
20:50 41 44 91 West 11.7 13.4 11 18.70 exactly 18.7 5 4.92 4.10 - 5.74 11 18.04 17.22 - 18.86 29.51 +0.01
21:50 42 44 83 West 17.5 20.1 12 15.42 exactly 15.4 8 8.20 7.38 - 9.02 12 13.12 12.30 - 13.94 29.50 -
22:50 42 44 83 WSW 13.6 15.7 11 14.44 exactly 14.4 7 6.56 5.74 - 7.38 11 13.12 12.30 - 13.94 29.51 -
23:50 42 44 88 WSW 13.6 15.7 11 13.45 exactly 13.5 6 6.56 5.74 - 7.38 11 11.48 10.66 - 12.30 29.49 -0.01
00:50 42 45 87 SW 11.7 13.4 11 12.47 exactly 12.5 5 4.92 4.10 - 5.74 11 11.48 10.66 - 12.30 29.47 -0.03
01:50 42 45 85 SSW 11.7 13.4 12 12.14 exactly 12.1 5 4.92 4.10 - 5.74 12 11.48 10.66 - 12.30 29.45 -0.06
02:50 41 45 96 SSW 13.6 15.7 11 12.47 exactly 12.5 6 4.92 4.10 - 5.74 11 11.48 10.66 - 12.30 29.42 -0.07
03:50 41 45 95 South 15.6 17.9 11 12.47 exactly 12.5 7 4.92 4.10 - 5.74 11 11.48 10.66 - 12.30 29.39 -0.08

Detailed Wave Spectra

Time Water Depth Wave Height Spectral Peak Period Average Wave Period Sampling Interval Wave Record
20:00 463 ft 9.42 ft 10.8 sec 6.0 sec 0.6 sec 2400 sec
21:00 463 ft 8.73 ft 10.8 sec 5.7 sec 0.6 sec 2400 sec
22:00 463 ft 8.30 ft 10.0 sec 5.6 sec 0.6 sec 2400 sec
23:00 463 ft 8.40 ft 10.8 sec 5.5 sec 0.6 sec 2400 sec
00:00 463 ft 10.56 ft 7.7 sec 5.7 sec 0.6 sec 2400 sec
01:00 463 ft 11.32 ft 7.7 sec 6.2 sec 0.6 sec 2400 sec
02:00 463 ft 13.98 ft 9.1 sec 7.0 sec 0.6 sec 2400 sec
03:00 463 ft 13.29 ft 9.1 sec 6.9 sec 0.6 sec 2400 sec
05:00 463 ft 13.75 ft 10.8 sec 7.2 sec 0.6 sec 2400 sec
06:00 463 ft 14.70 ft 11.4 sec 7.1 sec 0.6 sec 2400 sec
07:00 463 ft 15.09 ft 10.8 sec 7.2 sec 0.6 sec 2400 sec
08:00 463 ft 17.78 ft 10.8 sec 8.0 sec 0.6 sec 2400 sec
09:00 463 ft 17.06 ft 10.8 sec 7.6 sec 0.6 sec 2400 sec
10:00 463 ft 17.81 ft 10.8 sec 7.9 sec 0.6 sec 2400 sec
11:00 463 ft 16.86 ft 11.4 sec 7.6 sec 0.6 sec 2400 sec
12:00 463 ft 19.82 ft 11.4 sec 8.4 sec 0.6 sec 2400 sec
13:00 463 ft 16.96 ft 12.1 sec 7.7 sec 0.6 sec 2400 sec
15:00 463 ft 15.52 ft 11.4 sec 7.6 sec 0.6 sec 2400 sec
16:00 463 ft 21.03 ft 11.4 sec 8.9 sec 0.6 sec 2400 sec
17:00 463 ft 15.26 ft 11.4 sec 8.0 sec 0.6 sec 2400 sec
18:00 463 ft 17.09 ft 12.1 sec 8.5 sec 0.6 sec 2400 sec
19:00 463 ft 15.78 ft 12.1 sec 8.4 sec 0.6 sec 2400 sec
20:00 463 ft 16.57 ft 12.1 sec 8.1 sec 0.6 sec 2400 sec
21:00 463 ft 18.77 ft 11.4 sec 8.7 sec 0.6 sec 2400 sec
22:00 463 ft 15.52 ft 12.1 sec 8.0 sec 0.6 sec 2400 sec
23:00 463 ft 14.57 ft 11.4 sec 7.9 sec 0.6 sec 2400 sec
00:00 463 ft 13.32 ft 10.8 sec 7.5 sec 0.6 sec 2400 sec
01:00 463 ft 12.34 ft 11.4 sec 7.4 sec 0.6 sec 2400 sec
02:00 463 ft 11.98 ft 12.1 sec 7.5 sec 0.6 sec 2400 sec
03:00 463 ft 12.34 ft 10.8 sec 7.8 sec 0.6 sec 2400 sec